Weather History for Bentonville, AR

Change the Weather History Date:

Tuesday, November 26, 2013

  Actual Average Record
Temperature  
Mean Temperature 35 °F -  
Max Temperature 44 °F 55 °F 74 °F (1965)
Min Temperature 26 °F 35 °F 15 °F (1993)
Degree Days  
Heating Degree Days 30    
Moisture  
Dew Point 24 °F    
Average Humidity 64    
Maximum Humidity 75    
Minimum Humidity 43    
Precipitation  
Precipitation 0.00 in - - ()
Sea Level Pressure  
Sea Level Pressure 30.17 in    
Wind  
Wind Speed 8 mph (North)    
Max Wind Speed 22 mph    
Max Gust Speed 29 mph    
Visibility 10 miles    
Events      
Averages and records for this station are not official NWS values.
T = Trace of Precipitation, MM = Missing Value Source: NWS Daily Summary

Daily Weather History Graph

Daily Weather History Graph

Search for Another Location

Airport:

Trip Planner

Search our weather history database for the weather conditions in past years. The results will help you decide how hot, cold, wet, or windy it might be!

Date:

Astronomy

Nov. 26, 2013 Rise Set
Actual Time 7:05 AM CST 5:03 PM CST
Civil Twilight 6:37 AM CST 5:31 PM CST
Nautical Twilight 6:05 AM CST 6:02 PM CST
Astronomical Twilight 5:34 AM CST 6:33 PM CST
Moon 12:20 AM CST (11/26) 1:00 PM CST (11/26)
Length of Visible Light 10h 53m
Length of Day
9h 57m
Last Quarter, 41% of the Moon is Illuminated
Nov 26
Last Quarter
Dec 2
New
Dec 9
First Quarter
Dec 17
Full
Dec 25
Last Quarter

Hourly Weather History & Observations

Time (CST) Temp. Windchill Dew Point Humidity Pressure Visibility Wind Dir Wind Speed Gust Speed Precip Events Conditions
12:15 AM 33.8 °F 29.6 °F 26.6 °F 75% 30.16 in 10.0 mi North 4.6 mph - N/A   Overcast
12:35 AM 33.8 °F - 26.6 °F 75% 30.16 in 10.0 mi Calm Calm - N/A   Overcast
12:55 AM 33.8 °F 29.6 °F 26.6 °F 75% 30.15 in 10.0 mi NNE 4.6 mph - N/A   Overcast
1:15 AM 33.8 °F 29.6 °F 26.6 °F 75% 30.15 in 10.0 mi NNE 4.6 mph - N/A   Overcast
1:35 AM 33.8 °F 29.6 °F 26.6 °F 75% 30.15 in 10.0 mi NNE 4.6 mph - N/A   Overcast
1:55 AM 33.8 °F 28.6 °F 26.6 °F 75% 30.13 in 10.0 mi NNE 5.8 mph - N/A   Overcast
2:15 AM 33.8 °F 27.7 °F 26.6 °F 75% 30.12 in 10.0 mi North 6.9 mph - N/A   Overcast
2:35 AM 33.8 °F - 26.6 °F 75% 30.14 in 10.0 mi Calm Calm - N/A   Overcast
2:55 AM 33.8 °F 27.7 °F 26.6 °F 75% 30.13 in 10.0 mi North 6.9 mph - N/A   Overcast
3:15 AM 33.8 °F 26.4 °F 26.6 °F 75% 30.11 in 10.0 mi North 9.2 mph - N/A   Overcast
3:35 AM 33.8 °F 27.0 °F 26.6 °F 75% 30.11 in 10.0 mi North 8.1 mph - N/A   Overcast
3:55 AM 33.8 °F 27.7 °F 26.6 °F 75% 30.12 in 10.0 mi North 6.9 mph - N/A   Mostly Cloudy
4:15 AM 33.8 °F 29.6 °F 26.6 °F 75% 30.12 in 10.0 mi North 4.6 mph - N/A   Mostly Cloudy
4:35 AM 33.8 °F 29.6 °F 26.6 °F 75% 30.13 in 10.0 mi North 4.6 mph - N/A   Overcast
4:55 AM 33.8 °F 30.8 °F 26.6 °F 75% 30.13 in 10.0 mi NNW 3.5 mph - N/A   Overcast
5:15 AM 33.8 °F 29.6 °F 26.6 °F 75% 30.12 in 10.0 mi NNW 4.6 mph - N/A   Overcast
5:35 AM 33.8 °F 27.7 °F 26.6 °F 75% 30.11 in 10.0 mi NNW 6.9 mph - N/A   Overcast
5:55 AM 33.8 °F 27.7 °F 26.6 °F 75% 30.13 in 10.0 mi NNW 6.9 mph - N/A   Overcast
6:15 AM 33.8 °F 30.8 °F 26.6 °F 75% 30.12 in 10.0 mi North 3.5 mph - N/A   Overcast
6:35 AM 33.8 °F 30.8 °F 26.6 °F 75% 30.14 in 10.0 mi NNW 3.5 mph - N/A   Overcast
6:55 AM 33.8 °F - 26.6 °F 75% 30.16 in 10.0 mi Calm Calm - N/A   Overcast
7:15 AM 33.8 °F 29.6 °F 26.6 °F 75% 30.15 in 10.0 mi North 4.6 mph - N/A   Mostly Cloudy
7:35 AM 33.8 °F 29.6 °F 24.8 °F 70% 30.13 in 10.0 mi NNW 4.6 mph - N/A   Partly Cloudy
7:55 AM 33.8 °F 28.6 °F 24.8 °F 70% 30.14 in 10.0 mi North 5.8 mph - N/A   Clear
8:15 AM 33.8 °F 30.8 °F 26.6 °F 75% 30.15 in 10.0 mi North 3.5 mph - N/A   Clear
8:35 AM 33.8 °F 30.8 °F 24.8 °F 70% 30.15 in 10.0 mi NNW 3.5 mph - N/A   Clear
8:55 AM 33.8 °F 29.6 °F 26.6 °F 75% 30.15 in 10.0 mi NNW 4.6 mph - N/A   Clear
9:15 AM 33.8 °F 27.0 °F 26.6 °F 75% 30.15 in 10.0 mi North 8.1 mph - N/A   Clear
9:35 AM 35.6 °F 28.0 °F 26.6 °F 70% 30.15 in 10.0 mi North 10.4 mph - N/A   Clear
9:55 AM 35.6 °F 28.6 °F 26.6 °F 70% 30.15 in 10.0 mi North 9.2 mph - N/A   Clear
10:15 AM 35.6 °F 28.6 °F 26.6 °F 70% 30.15 in 10.0 mi North 9.2 mph - N/A   Clear
10:35 AM 37.4 °F 29.8 °F 26.6 °F 65% 30.15 in 10.0 mi North 11.5 mph - N/A   Clear
10:55 AM 39.2 °F 31.6 °F 28.4 °F 65% 30.15 in 10.0 mi North 12.7 mph - N/A   Clear
11:15 AM 41.0 °F 32.8 °F 28.4 °F 61% 30.14 in 10.0 mi North 16.1 mph 20.7 mph N/A   Clear
11:35 AM 42.8 °F 34.8 °F 26.6 °F 53% 30.14 in 10.0 mi North 17.3 mph 23.0 mph N/A   Clear
11:55 AM 42.8 °F 35.1 °F 26.6 °F 53% 30.15 in 10.0 mi North 16.1 mph 24.2 mph N/A   Clear
12:15 PM 42.8 °F 35.1 °F 26.6 °F 53% 30.14 in 10.0 mi North 16.1 mph 19.6 mph N/A   Clear
12:35 PM 44.6 °F 39.2 °F 26.6 °F 49% 30.13 in 10.0 mi North 10.4 mph 19.6 mph N/A   Partly Cloudy
12:55 PM 42.8 °F 36.6 °F 26.6 °F 53% 30.12 in 10.0 mi NNW 11.5 mph 18.4 mph N/A   Scattered Clouds
1:15 PM 42.8 °F 35.8 °F 26.6 °F 53% 30.11 in 10.0 mi North 13.8 mph - N/A   Partly Cloudy
1:35 PM 44.6 °F 37.4 °F 24.8 °F 46% 30.11 in 10.0 mi North 16.1 mph 25.3 mph N/A   Clear
1:55 PM 44.6 °F 37.4 °F 24.8 °F 46% 30.11 in 10.0 mi North 16.1 mph 27.6 mph N/A   Clear
2:15 PM 44.6 °F 36.9 °F 24.8 °F 46% 30.11 in 10.0 mi North 18.4 mph 24.2 mph N/A   Clear
2:35 PM 44.6 °F 37.2 °F 23.0 °F 43% 30.11 in 10.0 mi North 17.3 mph 25.3 mph N/A   Clear
2:55 PM 42.8 °F 34.5 °F 23.0 °F 46% 30.12 in 10.0 mi North 18.4 mph 27.6 mph N/A   Clear
3:15 PM 42.8 °F 34.5 °F 24.8 °F 49% 30.13 in 10.0 mi North 18.4 mph 25.3 mph N/A   Clear
3:35 PM 42.8 °F 36.6 °F 23.0 °F 46% 30.13 in 10.0 mi North 11.5 mph - N/A   Partly Cloudy
3:55 PM 41.0 °F 32.5 °F 23.0 °F 49% 30.14 in 10.0 mi North 17.3 mph 27.6 mph N/A   Partly Cloudy
4:15 PM 39.2 °F 29.8 °F 23.0 °F 52% 30.16 in 10.0 mi North 18.4 mph 28.8 mph N/A   Mostly Cloudy
4:35 PM 37.4 °F 26.9 °F 21.2 °F 52% 30.17 in 10.0 mi North 20.7 mph 27.6 mph N/A   Overcast
4:55 PM 35.6 °F 24.2 °F 21.2 °F 56% 30.18 in 10.0 mi North 21.9 mph 27.6 mph N/A   Overcast
5:15 PM 33.8 °F 22.2 °F 19.4 °F 56% 30.20 in 10.0 mi North 20.7 mph 27.6 mph N/A   Overcast
5:35 PM 33.8 °F 22.5 °F 19.4 °F 56% 30.21 in 10.0 mi North 19.6 mph 28.8 mph N/A   Mostly Cloudy
5:55 PM 33.8 °F 23.9 °F 19.4 °F 56% 30.22 in 10.0 mi North 15.0 mph 24.2 mph N/A   Mostly Cloudy
6:15 PM 32.0 °F 22.5 °F 19.4 °F 60% 30.22 in 10.0 mi North 12.7 mph 21.9 mph N/A   Scattered Clouds
6:35 PM 32.0 °F 23.6 °F 19.4 °F 60% 30.23 in 10.0 mi North 10.4 mph 18.4 mph N/A   Clear
6:55 PM 30.2 °F 21.9 °F 19.4 °F 64% 30.23 in 10.0 mi North 9.2 mph - N/A   Clear
7:15 PM 30.2 °F 20.8 °F 19.4 °F 64% 30.24 in 10.0 mi NNW 11.5 mph 16.1 mph N/A   Clear
7:35 PM 30.2 °F 20.8 °F 19.4 °F 64% 30.24 in 10.0 mi NNW 11.5 mph - N/A   Clear
7:55 PM 30.2 °F 21.3 °F 19.4 °F 64% 30.25 in 10.0 mi NNW 10.4 mph - N/A   Clear
8:15 PM 30.2 °F 21.9 °F 19.4 °F 64% 30.25 in 10.0 mi NNW 9.2 mph - N/A   Clear
8:35 PM 30.2 °F 20.8 °F 19.4 °F 64% 30.25 in 10.0 mi NNW 11.5 mph - N/A   Clear
8:55 PM 30.2 °F 22.6 °F 19.4 °F 64% 30.26 in 10.0 mi NNW 8.1 mph - N/A   Clear
9:15 PM 30.2 °F 21.9 °F 19.4 °F 64% 30.26 in 10.0 mi NNW 9.2 mph - N/A   Clear
9:35 PM 30.2 °F 21.9 °F 19.4 °F 64% 30.26 in 10.0 mi NNW 9.2 mph - N/A   Clear
9:55 PM 30.2 °F 22.6 °F 17.6 °F 60% 30.27 in 10.0 mi NNW 8.1 mph - N/A   Clear
10:15 PM 30.2 °F 20.8 °F 17.6 °F 60% 30.28 in 10.0 mi North 11.5 mph 16.1 mph N/A   Clear
10:35 PM 28.4 °F 17.5 °F 17.6 °F 64% 30.28 in 10.0 mi North 13.8 mph - N/A   Clear
10:55 PM 28.4 °F 16.2 °F 15.8 °F 59% 30.29 in 10.0 mi North 17.3 mph 23.0 mph N/A   Clear
11:15 PM 28.4 °F 15.4 °F 15.8 °F 59% 30.29 in 10.0 mi North 19.6 mph 27.6 mph N/A   Clear
11:35 PM 26.6 °F 13.1 °F 14.0 °F 59% 30.30 in 10.0 mi North 19.6 mph 26.5 mph N/A   Clear
11:55 PM 26.6 °F 13.4 °F 12.2 °F 55% 30.31 in 10.0 mi North 18.4 mph 25.3 mph N/A   Clear